This demonstration page uses our WeatherBlox Daily Observations layout. Learn more.

Left ArrowRight Arrow

Hourly Observations for November 2, 2022

Temp ( °F °C ) Dew Point ( °F °C ) Humidity (%) Winds ( mph kmh ) Pressure ( in mb ) Visibility ( mi km ) Precip ( " mm )
12:53 am 00:53 Clear 58 14.4 54 12.2 87 87 SE 12 19 30.02 1017 10 16 0.00 0.00
1:53 am 01:53 Clear 56 13.3 54 12.2 93 93 SE 12 19 30.01 1016 10 16 0.00 0.00
2:53 am 02:53 Clear 55 12.8 53 11.7 93 93 SE 10 17 30.01 1016 7 11 0.00 0.00
3:53 am 03:53 Clear with Mist and Fog 55 12.8 54 12.2 96 96 SE 13 20 30.01 1016 5 8 0.00 0.00
4:53 am 04:53 Clear with Mist and Fog 54 12.2 53 11.7 97 97 SE 13 20 30.00 1016 4 6 0.00 0.00
5:53 am 05:53 Clear with Mist and Fog 55 12.8 54 12.2 96 96 SE 13 20 30.00 1016 4 6 0.00 0.00
6:53 am 06:53 Clear with Mist and Fog 55 12.8 54 12.2 96 96 SE 10 17 30.01 1016 4 6 0.00 0.00
7:53 am 07:53 Clear with Mist and Fog 56 13.3 54 12.2 93 93 SE 12 19 30.01 1016 5 8 0.00 0.00
8:53 am 08:53 Sunny 57 13.9 55 12.8 93 93 SE 15 24 30.03 1017 7 11 0.00 0.00
9:40 am 09:40 Mostly Sunny 59 15 56 13.3 90 90 SE 14 22 30.06 1018 9 14 0.00 0.00
9:53 am 09:53 Mostly Sunny 60 15.6 56 13.3 86 86 SSE 13 20 30.05 1018 10 16 0.00 0.00
10:53 am 10:53 Mostly Sunny 64 17.8 55 12.8 73 73 SE 14 22 30.06 1018 10 16 0.00 0.00
11:53 am 11:53 Sunny 67 19.4 55 12.8 66 66 SSE 12 19 30.05 1018 10 16 0.00 0.00
12:53 pm 12:53 Sunny 71 21.7 54 12.2 55 55 S 12 19 30.01 1016 10 16 0.00 0.00
1:53 pm 13:53 Sunny 74 23.3 52 11.1 46 46 SSE 10 17 29.98 1015 10 16 0.00 0.00
2:53 pm 14:53 Sunny 76 24.4 51 10.6 42 42 S 9 15 29.94 1014 10 16 0.00 0.00
3:53 pm 15:53 Sunny 78 25.6 49 9.4 36 36 SSE 10 17 29.91 1013 10 16 0.00 0.00
4:53 pm 16:53 Sunny 78 25.6 52 11.1 40 40 SSE 13 20 29.91 1013 10 16 0.00 0.00
5:53 pm 17:53 Sunny 76 24.4 54 12.2 47 47 SE 15 24 29.90 1013 10 16 0.00 0.00
6:53 pm 18:53 Sunny 71 21.7 55 12.8 57 57 SE 17 28 29.91 1013 10 16 0.00 0.00
7:53 pm 19:53 Clear 68 20 55 12.8 63 63 SE 14 22 29.92 1013 10 16 0.00 0.00
8:53 pm 20:53 Clear 66 18.9 56 13.3 70 70 SE 14 22 29.93 1014 10 16 0.00 0.00
9:53 pm 21:53 Clear 64 17.8 57 13.9 78 78 SE 15 24 29.93 1014 10 16 0.00 0.00
10:53 pm 22:53 Clear 62 16.7 58 14.4 86 86 SE 14 22 29.93 1014 10 16 0.00 0.00
11:53 pm 23:53 Clear 60 15.6 57 13.9 90 90 SE 15 24 29.93 1013 10 16 0.00 0.00

Powered by AerisWeather